Dennison, MN

3:38 AM CST on January 23, 2017 (GMT -0600)
Stanton

Weather History for KSYN - November, 2012

Change the Weather History Date:

Wednesday, November 14, 2012

  Actual Average (KLVN) Record (KLVN)
Temperature  
Mean Temperature 44 °F -  
Max Temperature 52 °F 39 °F 71 °F (1990)
Min Temperature 35 °F 24 °F -2 °F (1959)
Degree Days  
Heating Degree Days 22    
Moisture  
Dew Point 31 °F    
Average Humidity 66    
Maximum Humidity 82    
Minimum Humidity 45    
Precipitation  
Precipitation 0.00 in - - ()
Sea Level Pressure  
Sea Level Pressure 30.21 in    
Wind  
Wind Speed 6 mph (South)    
Max Wind Speed 9 mph    
Max Gust Speed -    
Visibility 10 miles    
Events      
Averages and records for this station are not official NWS values.
T = Trace of Precipitation, MM = Missing Value Source: NWS Daily Summary

Daily Weather History Graph

Daily Weather History Graph

Search for Another Location

Airport or City:

Trip Planner

Search our weather history database for the weather conditions in past years. The results will help you decide how hot, cold, wet, or windy it might be!

Date:

Astronomy

Nov. 14, 2012 Rise Set
Actual Time 7:07 AM CST 4:45 PM CST
Civil Twilight 6:36 AM CST 5:16 PM CST
Nautical Twilight 6:01 AM CST 5:51 PM CST
Astronomical Twilight 5:26 AM CST 6:25 PM CST
Moon 7:59 AM CST (11/14) 5:31 PM CST (11/14)
Length of Visible Light 10h 40m
Length of Day
9h 37m
New Moon, 1% of the Moon is Illuminated
Nov 14
New Moon
Nov 20
First Quarter
Nov 28
Full
Dec 6
Last Quarter
Dec 13
New

Hourly Weather History & Observations

Time (CST) Temp. Windchill Dew Point Humidity Pressure Visibility Wind Dir Wind Speed Gust Speed Precip Events Conditions
12:12 AM 37.4 °F 31.4 °F 27.3 °F 67% 30.26 in 10.0 mi South 8.1 mph - N/A   Scattered Clouds
12:32 AM 37.4 °F 30.8 °F 27.5 °F 67% 30.26 in 10.0 mi South 9.2 mph - N/A   Scattered Clouds
12:52 AM 37.4 °F 31.4 °F 27.5 °F 67% 30.25 in 10.0 mi South 8.1 mph - N/A   Scattered Clouds
1:12 AM 37.2 °F 31.2 °F 27.5 °F 68% 30.25 in 10.0 mi South 8.1 mph - N/A   Scattered Clouds
1:32 AM 37.4 °F 30.8 °F 27.9 °F 68% 30.25 in 10.0 mi South 9.2 mph - N/A   Clear
1:52 AM 37.4 °F 32.1 °F 28.0 °F 69% 30.25 in 10.0 mi South 6.9 mph - N/A   Clear
2:12 AM 37.6 °F 31.6 °F 28.2 °F 69% 30.25 in 10.0 mi South 8.1 mph - N/A   Clear
2:32 AM 37.4 °F 33.8 °F 28.4 °F 70% 30.25 in 10.0 mi South 4.6 mph - N/A   Scattered Clouds
2:52 AM 37.4 °F 32.1 °F 28.8 °F 71% 30.25 in 10.0 mi South 6.9 mph - N/A   Scattered Clouds
3:12 AM 37.0 °F 32.4 °F 28.9 °F 73% 30.25 in 10.0 mi South 5.8 mph - N/A   Scattered Clouds
3:32 AM 36.9 °F 34.3 °F 29.1 °F 74% 30.25 in 10.0 mi South 3.5 mph - N/A   Scattered Clouds
3:52 AM 36.5 °F 33.9 °F 29.3 °F 75% 30.25 in 10.0 mi South 3.5 mph - N/A   Mostly Cloudy
4:12 AM 36.5 °F 33.9 °F 29.3 °F 75% 30.25 in 10.0 mi South 3.5 mph - N/A   Overcast
4:32 AM 36.5 °F - 29.8 °F 77% 30.25 in 10.0 mi Calm Calm - N/A   Overcast
4:52 AM 36.5 °F 33.9 °F 30.0 °F 77% 30.25 in 10.0 mi South 3.5 mph - N/A   Overcast
5:12 AM 36.7 °F 32.9 °F 30.2 °F 77% 30.24 in 10.0 mi South 4.6 mph - N/A   Overcast
5:32 AM 36.9 °F 34.3 °F 30.2 °F 77% 30.25 in 10.0 mi South 3.5 mph - N/A   Overcast
6:12 AM 36.5 °F 32.7 °F 30.4 °F 78% 30.25 in 10.0 mi South 4.6 mph - N/A   Overcast
6:32 AM 36.5 °F 33.9 °F 30.7 °F 80% 30.24 in 10.0 mi South 3.5 mph - N/A   Overcast
6:52 AM 36.3 °F 30.8 °F 30.6 °F 80% 30.24 in 10.0 mi South 6.9 mph - N/A   Overcast
7:12 AM 35.6 °F 30.7 °F 30.2 °F 81% 30.25 in 10.0 mi South 5.8 mph - N/A   Mostly Cloudy
7:32 AM 35.2 °F 31.2 °F 30.4 °F 82% 30.25 in 10.0 mi South 4.6 mph - N/A   Mostly Cloudy
7:52 AM 35.6 °F 30.7 °F 30.7 °F 82% 30.25 in 10.0 mi South 5.8 mph - N/A   Mostly Cloudy
8:13 AM 36.5 °F 31.8 °F 31.1 °F 81% 30.25 in 10.0 mi South 5.8 mph - N/A   Mostly Cloudy
8:32 AM 36.7 °F 32.9 °F 31.1 °F 80% 30.25 in 10.0 mi South 4.6 mph - N/A   Scattered Clouds
8:52 AM 37.6 °F 35.1 °F 31.8 °F 80% 30.26 in 10.0 mi SSW 3.5 mph - N/A   Scattered Clouds
9:12 AM 38.5 °F 35.0 °F 32.0 °F 78% 30.26 in 10.0 mi South 4.6 mph - N/A   Mostly Cloudy
9:32 AM 39.6 °F 37.4 °F 32.4 °F 75% 30.26 in 10.0 mi SSW 3.5 mph - N/A   Mostly Cloudy
9:52 AM 41.4 °F 38.4 °F 32.7 °F 71% 30.26 in 10.0 mi SSW 4.6 mph - N/A   Scattered Clouds
10:12 AM 43.7 °F 39.1 °F 33.4 °F 67% 30.26 in 10.0 mi SSW 8.1 mph - N/A   Clear
10:32 AM 45.1 °F 42.0 °F 33.6 °F 64% 30.26 in 10.0 mi SSW 5.8 mph - N/A   Clear
10:52 AM 45.9 °F 42.9 °F 33.8 °F 63% 30.25 in 10.0 mi SSW 5.8 mph - N/A   Clear
11:12 AM 47.7 °F - 33.8 °F 59% 30.25 in 10.0 mi SW 6.9 mph - N/A   Clear
11:32 AM 46.4 °F 44.3 °F 33.8 °F 62% 30.25 in 10.0 mi SSW 4.6 mph - N/A   Clear
11:52 AM 48.4 °F - 33.4 °F 56% 30.23 in 10.0 mi SSW 3.5 mph - N/A   Clear
12:13 PM 50.0 °F - 33.8 °F 54% 30.22 in 10.0 mi South 4.6 mph - N/A   Clear
12:32 PM 50.4 °F - 32.0 °F 49% 30.22 in 10.0 mi SW 6.9 mph - N/A   Clear
12:52 PM 50.9 °F - 31.8 °F 48% 30.21 in 10.0 mi SSW 6.9 mph - N/A   Clear
1:12 PM 51.3 °F - 31.5 °F 47% 30.21 in 10.0 mi SSW 8.1 mph - N/A   Clear
1:32 PM 51.8 °F - 31.6 °F 46% 30.21 in 10.0 mi SW 6.9 mph - N/A   Clear
1:52 PM 51.1 °F - 30.9 °F 46% 30.20 in 10.0 mi SW 5.8 mph - N/A   Clear
2:12 PM 51.4 °F - 31.5 °F 46% 30.20 in 10.0 mi SSW 5.8 mph - N/A   Scattered Clouds
2:32 PM 52.2 °F - 31.1 °F 45% 30.20 in 10.0 mi SSW 8.1 mph - N/A   Mostly Cloudy
2:52 PM 50.7 °F - 30.9 °F 47% 30.20 in 10.0 mi SSW 9.2 mph - N/A   Mostly Cloudy
3:12 PM 50.0 °F - 32.0 °F 50% 30.19 in 10.0 mi SSW 6.9 mph - N/A   Overcast
3:32 PM 49.5 °F - 32.9 °F 53% 30.19 in 10.0 mi SSW 3.5 mph - N/A   Overcast
3:52 PM 49.1 °F - 33.6 °F 55% 30.19 in 10.0 mi Calm Calm - N/A   Scattered Clouds
4:12 PM 48.4 °F - 34.0 °F 58% 30.19 in 10.0 mi Calm Calm - N/A   Clear
4:32 PM 47.5 °F - 33.8 °F 59% 30.18 in 10.0 mi Calm Calm - N/A   Clear
4:52 PM 45.7 °F 42.7 °F 33.4 °F 62% 30.17 in 10.0 mi SSE 5.8 mph - N/A   Clear
5:13 PM 46.6 °F - 32.7 °F 59% 30.17 in 10.0 mi SSE 3.5 mph - N/A   Scattered Clouds
5:32 PM 43.9 °F 42.3 °F 32.9 °F 65% 30.17 in 10.0 mi SSE 3.5 mph - N/A   Scattered Clouds
5:52 PM 42.3 °F - 33.1 °F 70% 30.17 in 10.0 mi Calm Calm - N/A   Scattered Clouds
6:12 PM 43.7 °F - 32.9 °F 66% 30.17 in 10.0 mi Calm Calm - N/A   Clear
6:33 PM 43.5 °F - 32.4 °F 65% 30.17 in 10.0 mi Calm Calm - N/A   Clear
6:52 PM 42.1 °F 39.2 °F 32.2 °F 68% 30.17 in 10.0 mi SW 4.6 mph - N/A   Scattered Clouds
7:12 PM 42.8 °F 41.1 °F 32.4 °F 67% 30.17 in 10.0 mi SSW 3.5 mph - N/A   Mostly Cloudy
7:33 PM 41.9 °F 40.0 °F 32.7 °F 70% 30.17 in 10.0 mi SSW 3.5 mph - N/A   Overcast
7:52 PM 41.7 °F 39.8 °F 32.7 °F 70% 30.17 in 10.0 mi South 3.5 mph - N/A   Mostly Cloudy
8:32 PM 43.3 °F 40.7 °F 32.9 °F 67% 30.16 in 10.0 mi South 4.6 mph - N/A   Clear
8:52 PM 43.9 °F 41.3 °F 32.9 °F 65% 30.16 in 10.0 mi South 4.6 mph - N/A   Clear
9:13 PM 44.4 °F 40.5 °F 32.5 °F 63% 30.16 in 10.0 mi South 6.9 mph - N/A   Clear
9:32 PM 43.7 °F 40.3 °F 32.2 °F 64% 30.16 in 10.0 mi South 5.8 mph - N/A   Clear
9:52 PM 42.4 °F 38.1 °F 32.0 °F 67% 30.16 in 10.0 mi South 6.9 mph - N/A   Clear
10:13 PM 41.5 °F 38.6 °F 32.0 °F 69% 30.16 in 10.0 mi South 4.6 mph - N/A   Clear
10:32 PM 40.6 °F 36.0 °F 32.0 °F 71% 30.16 in 10.0 mi South 6.9 mph - N/A   Clear
10:52 PM 40.1 °F 35.3 °F 32.0 °F 73% 30.16 in 10.0 mi South 6.9 mph - N/A   Clear
11:01 PM 40.5 °F 35.1 °F 32.0 °F 72% 30.16 in 10.0 mi South 8.1 mph - N/A   Clear
11:36 PM 41.4 °F 36.2 °F 31.8 °F 69% 30.15 in 10.0 mi South 8.1 mph - N/A   Clear
11:52 PM 41.5 °F 35.9 °F 31.6 °F 68% 30.15 in 10.0 mi South 9.2 mph - N/A   Clear